Location: Fours
(44.3167°N, 6.7000°E)
Time: 07:48:18
(UTC+00:00)

Cosmos 2227 - Pass Details

Date: 05 December 2023
Orbit: 836 x 859 km, 71.0° (Epoch: 24 February)

Event Time Altitude Azimuth Distance (km) Brightness Sun altitude
Rises 18:01:50 0° 225° (SW) 3,422 8.2 -22.1°
Reaches altitude 10° 18:04:25 10° 233° (SW) 2,489 7.5 -22.5°
Maximum altitude 18:09:49 42° 303° (WNW) 1,213 5.3 -23.5°
Enters shadow 18:14:12 15° 9° (N) 2,140 6.1 -24.2°
